Temp
10 9 9 9 9 9 9 9 9 9 9 10 10 10 10 10 10 10 10 10 10 10 10 10 10 10 10 10 10 10 10 10 10 10 10 10 10 10 10 10 10 10
10 9 9 9 9 9 9 9 9 9 9 9 10 10 10 10 10 10 10 10 10 10 10 10 10 10 10 10 10 10 10 10 10 10 10 10 10 10 10 10 10 10
10 10 9 9 9 9 9 9 9 9 9 9 9 10 10 10 10 10 10 10 10 10 10 10 10 10 10 10 10 10 10 10 10 10 10 10 10 10 10 10 10 10
10 10 9 9 9 9 9 9 9 9 9 9 9 9 9 10 10 10 10 10 10 10 10 10 10 10 10 10 10 10 10 10 10 10 10 10 10 10 10 10 10 10
10 10 9 9 9 9 9 9 9 9 9 9 9 9 9 10 10 10 10 10 10 10 10 10 10 10 10 10 10 10 10 10 10 10 10 10 10 10 10 10 10 10
10 10 10 9 9 9 9 9 9 9 9 9 9 9 9 9 9 10 10 10 10 10 10 10 10 10 10 10 10 10 10 10 10 10 10 10 10 10 10 10 10 10
10 10 10 10 10 9 9 9 10 9 9 9 9 9 9 9 9 9 9 10 10 10 10 10 10 10 10 10 10 10 10 10 10 10 10 10 10 10 10 10 10 10
10 10 10 10 10 10 9 9 9 9 9 9 9 9 9 9 9 9 9 10 10 10 10 10 10 10 10 10 10 10 10 10 10 10 10 10 10 10 10 10 10 10
10 10 10 10 10 10 9 9 9 9 9 10 9 9 9 9 9 9 9 9 9 10 10 10 10 10 10 10 10 10 9 9 9 10 10 10 10 10 10 9 9 9
10 10 10 10 10 9 9 9 9 9 9 10 10 10 9 9 9 9 9 9 9 10 10 10 10 10 10 10 10 10 10 9 9 10 9 10 10 9 10 9 9 9
9 10 10 10 10 9 9 9 9 9 9 10 10 10 10 9 9 9 9 9 9 9 10 10 10 10 10 10 10 10 10 10 10 10 9 9 9 9 9 9 9 10
9 9 10 10 10 9 9 9 9 9 9 9 10 10 10 10 9 9 9 9 9 9 9 9 10 10 10 10 10 10 10 10 9 9 9 9 9 10 10 10 10 10
9 10 9 9 9 9 9 9 9 9 9 9 10 10 10 10 10 10 9 9 9 9 9 9 10 10 10 10 10 10 10 10 9 9 9 9 9 9 10 10 10 10
10 10 10 10 10 9 9 9 9 9 10 10 10 10 10 10 10 10 9 9 9 9 9 9 10 10 10 9 9 9 9 9 9 9 9 9 9 9 9 10 10 10
9 10 10 10 10 10 10 10 10 10 10 10 10 10 10 10 10 10 10 9 9 9 9 9 9 10 10 9 9 9 9 9 9 10 10 10 10 10 10 10 10 10
9 9 9 10 10 10 10 10 10 10 10 10 10 10 10 10 10 10 10 9 9 9 9 9 9 9 9 9 9 9 9 9 9 10 10 10 10 10 10 10 10 10
9 9 9 9 10 10 10 10 10 10 10 10 10 9 9 9 9 9 9 9 9 9 9 9 9 9 9 9 9 9 9 9 9 9 9 10 10 10 10 10 10 10
9 9 9 9 9 10 10 10 10 9 9 10 10 9 9 9 9 9 9 9 9 9 9 9 9 9 9 9 9 9 9 9 9 9 9 9 9 9 9 9 10 10
9 9 9 9 9 9 10 10 10 9 9 9 9 9 9 9 9 9 9 9 9 9 9 9 9 9 9 9 9 9 9 9 9 9 9 9 9 9 9 9 10 10
9 9 9 9 9 9 9 9 9 9 9 9 9 9 9 9 9 9 9 9 9 9 9 9 9 9 10 9 9 9 9 9 9 9 9 9 9 9 9 9 10 10
9 9 9 9 9 9 9 9 9 9 9 9 9 9 9 9 9 9 9 9 9 9 9 9 9 9 9 9 9 10 10 9 9 9 9 9 9 9 9 9 9 10
9 9 9 9 9 9 9 9 9 9 9 9 9 9 9 9 9 9 9 9 9 9 9 9 9 9 9 9 9 9 9 9 9 9 9 9 9 9 9 9 9 10
9 9 9 9 8 8 8 9 9 9 9 9 9 9 9 9 9 8 9 9 9 9 9 9 9 9 9 9 9 9 9 9 9 9 9 9 9 9 9 9 9 10
9 9 9 9 9 9 9 9 9 9 9 9 9 9 9 9 8 8 9 9 9 9 9 9 9 9 9 9 9 9 9 9 9 9 9 9 9 9 9 9 10 9
9 9 9 9 9 9 9 9 9 9 9 8 8 8 8 8 8 8 9 9 8 8 9 9 9 9 9 9 9 9 9 9 9 9 9 9 9 9 9 9 9 9
9 9 9 9 9 9 9 9 9 9 9 8 8 8 8 8 8 8 8 8 8 8 8 8 8 8 8 8 8 9 9 9 9 8 9 9 9 9 9 9 9 9
Height
3245 3246 3246 3247 3248 3249 3249 3249 3250 3250 3251 3252 3252 3253 3254 3254 3255 3255 3256 3256 3257 3258 3259 3260 3260 3261 3262 3262 3263 3264 3264 3265 3266 3267 3267 3268 3268 3269 3269 3270 3270 3270
3244 3245 3246 3247 3248 3248 3249 3249 3250 3250 3251 3252 3252 3253 3253 3254 3255 3255 3255 3256 3257 3257 3258 3259 3260 3260 3261 3262 3262 3263 3263 3264 3265 3266 3266 3267 3268 3268 3269 3269 3270 3270
3243 3244 3245 3246 3247 3248 3248 3249 3249 3250 3251 3251 3252 3252 3253 3254 3254 3255 3255 3256 3256 3257 3257 3258 3259 3260 3260 3261 3261 3262 3263 3263 3264 3265 3265 3266 3266 3267 3268 3268 3269 3269
3242 3243 3244 3245 3246 3247 3248 3248 3249 3249 3250 3251 3251 3252 3252 3253 3254 3254 3255 3255 3256 3256 3257 3257 3258 3258 3259 3260 3261 3261 3262 3262 3263 3264 3264 3265 3265 3266 3266 3267 3268 3268
3241 3242 3243 3244 3245 3246 3247 3248 3248 3249 3249 3250 3251 3251 3252 3252 3253 3254 3254 3255 3255 3256 3256 3257 3257 3257 3258 3259 3260 3260 3261 3262 3262 3263 3263 3264 3265 3265 3265 3266 3266 3267
3240 3241 3242 3243 3243 3245 3246 3247 3247 3248 3248 3249 3250 3250 3251 3252 3252 3253 3254 3254 3255 3255 3256 3256 3257 3257 3258 3258 3259 3259 3260 3261 3261 3262 3262 3263 3263 3264 3264 3265 3265 3266
3238 3239 3240 3241 3242 3243 3244 3245 3246 3247 3248 3248 3249 3250 3250 3251 3251 3252 3253 3254 3254 3255 3255 3256 3256 3257 3257 3258 3258 3259 3259 3260 3260 3261 3261 3262 3262 3263 3263 3264 3264 3264
3237 3238 3239 3240 3241 3242 3243 3244 3245 3246 3247 3247 3248 3248 3249 3250 3250 3251 3252 3253 3253 3254 3255 3255 3256 3256 3257 3257 3258 3258 3259 3259 3260 3260 3260 3261 3261 3262 3262 3263 3263 3263
3235 3236 3237 3238 3240 3241 3242 3243 3244 3245 3246 3246 3247 3248 3248 3249 3249 3250 3251 3251 3252 3253 3254 3254 3255 3255 3256 3256 3257 3258 3258 3258 3259 3259 3259 3260 3260 3261 3261 3262 3262 3262
3233 3235 3236 3237 3238 3239 3240 3242 3242 3243 3244 3245 3246 3247 3247 3248 3248 3249 3250 3250 3251 3252 3253 3254 3254 3255 3255 3255 3256 3257 3257 3258 3258 3259 3259 3259 3260 3260 3260 3261 3261 3261
3231 3233 3233 3235 3236 3237 3239 3240 3241 3241 3242 3243 3244 3245 3246 3246 3247 3247 3248 3249 3250 3251 3252 3252 3253 3254 3254 3254 3255 3255 3256 3257 3257 3258 3258 3259 3259 3260 3260 3260 3260 3261
3229 3230 3231 3233 3234 3235 3236 3238 3238 3239 3240 3241 3242 3243 3244 3245 3246 3246 3247 3248 3249 3249 3250 3251 3252 3253 3253 3254 3254 3254 3255 3256 3256 3257 3257 3258 3258 3259 3259 3260 3260 3260
3226 3227 3229 3230 3232 3233 3234 3235 3236 3237 3238 3239 3240 3241 3242 3243 3244 3245 3246 3247 3247 3248 3249 3250 3251 3252 3252 3253 3253 3253 3254 3255 3255 3256 3256 3257 3258 3258 3259 3259 3259 3260
3223 3224 3226 3227 3229 3230 3231 3233 3234 3235 3236 3237 3238 3239 3240 3242 3243 3244 3244 3245 3246 3247 3248 3249 3250 3250 3251 3252 3252 3252 3253 3253 3254 3255 3255 3256 3257 3257 3258 3258 3258 3259
3221 3222 3223 3224 3226 3228 3229 3231 3232 3233 3234 3235 3236 3237 3238 3240 3241 3242 3243 3244 3244 3245 3246 3247 3248 3249 3250 3250 3251 3251 3252 3252 3253 3254 3254 3255 3256 3256 3257 3257 3257 3258
3218 3220 3221 3222 3224 3225 3226 3228 3229 3231 3232 3233 3234 3235 3236 3237 3239 3240 3241 3242 3243 3244 3245 3246 3247 3247 3248 3249 3250 3250 3251 3251 3252 3252 3253 3254 3255 3255 3256 3256 3257 3257
3215 3217 3218 3220 3222 3223 3224 3225 3227 3228 3229 3231 3232 3233 3234 3235 3237 3238 3239 3240 3241 3242 3243 3244 3245 3245 3246 3247 3248 3248 3249 3250 3250 3251 3252 3253 3253 3254 3255 3255 3255 3256
3211 3213 3214 3216 3219 3221 3222 3223 3224 3226 3227 3229 3230 3231 3232 3233 3234 3235 3236 3237 3239 3240 3241 3242 3242 3242 3244 3245 3245 3246 3247 3248 3249 3250 3250 3251 3252 3253 3253 3254 3254 3254
3207 3209 3211 3213 3215 3217 3218 3220 3221 3223 3225 3226 3228 3229 3229 3230 3231 3233 3233 3235 3236 3237 3238 3239 3239 3239 3241 3243 3243 3244 3245 3246 3247 3248 3248 3249 3250 3251 3251 3252 3252 3253
3203 3206 3208 3209 3210 3212 3214 3216 3218 3220 3222 3223 3225 3226 3226 3227 3229 3229 3230 3231 3233 3234 3235 3236 3235 3237 3239 3240 3241 3242 3243 3244 3245 3246 3246 3247 3247 3248 3249 3249 3250 3251
3201 3203 3204 3205 3207 3208 3210 3212 3214 3216 3218 3220 3221 3222 3223 3224 3225 3226 3227 3228 3229 3231 3232 3231 3232 3235 3237 3238 3239 3240 3241 3242 3243 3243 3244 3244 3245 3246 3246 3247 3247 3248
3197 3199 3200 3201 3203 3204 3206 3208 3210 3211 3213 3216 3218 3219 3220 3221 3221 3222 3223 3224 3226 3227 3227 3227 3230 3233 3234 3235 3236 3237 3238 3239 3240 3241 3241 3242 3242 3243 3243 3244 3245 3245
3195 3197 3198 3199 3200 3201 3203 3204 3207 3208 3210 3212 3214 3216 3217 3218 3218 3218 3218 3220 3222 3222 3222 3224 3228 3229 3230 3232 3233 3234 3236 3236 3237 3238 3239 3239 3240 3240 3241 3241 3242 3242
3193 3194 3195 3196 3197 3198 3200 3202 3203 3205 3206 3208 3210 3212 3213 3214 3214 3213 3213 3215 3216 3216 3219 3223 3225 3226 3228 3229 3230 3232 3233 3233 3234 3235 3236 3236 3237 3237 3238 3238 3238 3239
3191 3191 3192 3193 3194 3195 3196 3198 3200 3201 3202 3204 3205 3207 3208 3210 3211 3211 3211 3212 3213 3215 3219 3222 3223 3224 3225 3226 3227 3229 3229 3230 3231 3231 3232 3233 3233 3233 3234 3234 3234 3235
3189 3190 3191 3191 3192 3193 3193 3194 3196 3197 3198 3199 3200 3201 3202 3204 3207 3208 3209 3211 3213 3216 3218 3220 3221 3222 3223 3223 3224 3226 3226 3227 3227 3228 3228 3229 3229 3230 3230 3230 3229 3229
Wind_Speed
11 10 10 10 9 9 9 9 10 11 11 11 10 10 10 10 11 11 11 11 11 10 10 9 9 9 8 7 7 7 7 7 7 7 7 7 6 6 7 7 7 8
12 11 11 10 10 9 9 10 10 10 11 11 10 9 9 9 10 10 10 10 10 10 10 9 9 9 8 8 8 8 8 8 8 7 7 7 7 7 6 7 7 7
14 13 12 12 11 10 10 10 10 10 11 11 10 9 9 9 9 10 10 10 10 11 10 10 9 9 9 9 8 8 9 9 9 8 8 8 8 7 7 7 7 7
15 14 14 14 13 12 11 11 11 10 10 11 10 10 10 10 10 10 10 10 10 11 11 11 10 10 10 10 10 9 10 9 9 9 9 9 9 8 7 8 8 8
16 16 16 15 15 14 12 12 12 11 11 11 11 11 11 11 11 11 11 10 10 10 11 11 11 11 11 11 11 11 10 10 10 10 10 10 9 9 8 9 9 10
18 17 16 16 16 16 14 13 13 13 12 11 11 11 12 12 12 12 11 11 11 11 11 11 11 11 12 12 12 12 11 11 11 11 10 10 10 9 9 9 10 11
18 18 17 17 18 17 16 15 14 14 14 13 12 12 12 12 12 12 12 12 11 11 11 11 11 11 12 12 13 13 12 12 11 11 11 10 9 9 9 9 10 11
18 18 18 18 18 18 18 17 16 15 15 14 13 13 13 13 13 13 12 12 12 12 12 12 12 12 12 12 12 12 12 12 12 11 11 10 10 9 9 9 10 11
19 19 19 19 19 19 18 18 17 17 17 16 15 14 14 14 14 14 14 13 13 12 12 12 12 12 12 12 12 12 12 13 12 12 11 10 10 9 8 9 10 10
21 20 20 20 20 19 19 19 19 19 18 18 17 16 15 15 15 15 15 14 14 13 12 11 11 11 12 12 12 12 13 13 13 12 11 11 10 9 8 8 8 9
22 22 22 21 20 20 19 19 20 20 20 19 18 17 17 16 16 16 16 15 15 15 14 13 12 12 11 11 12 12 13 13 13 12 11 11 10 10 8 8 8 8
24 24 23 22 21 21 20 20 21 21 21 20 20 19 19 18 17 17 16 16 16 16 15 14 14 13 12 12 12 12 13 13 13 12 11 11 11 10 9 8 8 8
26 26 25 24 23 22 22 22 22 22 21 21 21 21 20 19 18 18 17 17 17 17 17 16 15 14 13 13 12 12 12 13 13 12 12 11 11 10 10 9 8 8
28 28 28 27 26 25 24 23 23 23 23 22 21 21 21 21 20 19 19 18 18 17 17 17 16 15 15 14 13 13 13 13 13 13 13 12 12 11 11 10 10 9
29 29 30 29 28 27 25 24 24 24 23 23 22 22 22 22 21 21 20 20 19 19 18 18 17 17 16 16 15 14 14 14 14 14 13 13 13 13 12 12 11 11
32 30 30 30 30 29 27 26 26 25 25 25 24 24 23 23 23 22 22 21 20 20 20 19 19 18 18 17 17 16 15 15 15 14 14 14 14 13 13 13 13 12
34 33 32 30 29 29 29 28 27 26 27 27 26 26 25 24 24 23 23 22 22 22 22 21 21 21 19 19 19 18 17 17 16 16 15 15 14 14 14 14 13 13
36 36 34 31 30 29 29 28 28 28 28 28 27 27 26 25 25 24 24 24 23 23 23 23 23 24 22 21 21 20 19 19 18 17 17 16 16 16 16 15 15 15
36 35 33 31 31 31 30 28 28 28 28 28 28 28 27 27 26 25 25 25 25 25 24 24 26 26 24 23 23 22 21 20 19 18 18 18 18 17 17 17 17 17
33 34 34 33 33 33 32 29 28 29 29 28 28 29 30 28 27 27 27 26 26 26 25 27 29 27 25 25 25 23 22 21 20 20 19 19 19 19 18 18 18 18
27 29 32 33 33 34 33 31 31 33 33 32 31 32 31 30 29 29 29 29 28 27 27 29 29 26 25 26 26 25 24 23 22 22 21 21 21 21 20 20 20 20
24 26 29 31 32 34 35 34 35 37 37 36 35 35 33 32 31 30 30 30 30 30 31 31 28 25 25 26 26 26 25 25 24 24 23 23 23 23 22 22 22 22
21 23 25 28 29 31 33 35 36 36 36 36 37 38 37 34 32 32 31 31 31 32 33 30 27 26 26 25 25 25 25 26 26 26 25 25 25 25 24 24 24 23
18 21 22 23 25 26 27 29 30 31 34 34 35 38 40 38 36 34 32 32 34 34 32 28 27 27 27 25 25 24 25 26 26 26 26 26 26 26 25 26 26 25
15 18 18 18 20 21 21 22 23 23 26 29 32 37 39 39 39 38 35 34 34 32 27 25 26 27 26 26 26 25 25 26 26 26 27 27 27 28 27 28 27 26
12 14 15 16 17 18 18 20 20 18 18 21 24 28 32 34 37 40 38 35 31 27 24 24 24 25 25 25 25 26 26 26 26 27 27 27 28 28 29 29 29 29
Wind_Direction
202 194 194 200 205 206 199 191 188 188 190 193 195 197 198 197 197 198 199 197 197 199 199 199 200 202 207 211 212 210 209 212 215 216 216 219 223 216 201 193 191 188
209 203 202 204 207 211 207 201 198 196 198 200 201 200 200 201 199 199 199 198 197 199 199 201 204 207 211 216 215 213 213 216 219 220 219 221 228 230 222 215 213 208
211 207 206 205 208 211 211 210 208 205 205 206 204 202 201 204 206 203 202 202 201 201 200 200 205 212 216 220 218 216 217 218 221 222 222 224 228 232 231 227 228 226
212 209 207 207 209 211 212 213 213 211 211 209 206 201 200 204 208 206 206 207 207 206 205 203 206 212 218 222 220 218 219 220 221 224 225 227 229 230 230 230 231 230
212 212 209 209 211 212 212 214 215 215 215 214 211 206 204 204 206 207 209 210 212 213 213 212 212 213 217 221 221 219 219 218 218 222 226 229 232 232 232 231 230 230
214 215 213 212 214 215 215 215 217 218 218 217 216 214 210 208 207 209 211 212 215 219 220 221 219 219 220 221 221 220 218 216 215 218 222 225 228 230 232 233 231 230
215 217 217 216 216 217 217 218 219 221 222 222 220 219 217 214 212 212 213 215 217 220 222 225 226 227 228 226 225 224 221 218 217 217 218 221 224 226 229 234 235 233
215 217 220 220 220 219 219 221 223 224 226 226 224 223 221 219 217 215 215 216 219 221 223 226 228 229 231 231 230 229 226 224 222 220 221 222 223 226 230 237 239 237
216 217 221 223 223 223 222 223 226 228 230 230 229 228 225 223 222 219 217 218 218 221 223 226 228 228 229 233 234 233 231 230 230 228 228 228 226 228 237 243 243 238
218 219 220 223 224 225 225 226 228 231 233 233 233 233 230 228 226 224 222 220 219 220 222 225 228 227 228 231 233 235 234 234 236 236 235 233 230 230 236 242 241 235
218 220 221 223 223 224 225 227 230 232 234 236 236 236 236 233 231 229 227 224 221 221 222 224 226 228 229 230 232 234 234 235 238 241 240 239 236 234 235 238 237 234
217 220 223 224 224 223 224 226 229 232 234 236 237 238 238 237 235 233 231 229 225 223 224 225 226 229 230 231 232 233 233 235 237 240 242 241 240 239 239 241 240 238
218 219 221 223 224 224 224 225 228 231 233 235 238 238 239 239 239 237 235 233 230 227 227 228 229 230 231 232 232 232 233 234 236 240 243 242 240 240 242 245 246 247
222 222 221 222 224 224 224 225 228 231 233 234 237 239 240 240 240 239 237 236 234 232 231 231 232 232 232 231 231 231 231 233 236 238 241 243 242 240 240 242 246 249
225 226 225 224 224 225 225 226 228 231 234 236 238 239 241 241 241 240 239 237 236 235 234 234 235 234 233 232 231 230 229 230 234 237 240 243 243 243 243 244 246 248
228 229 230 228 227 226 226 227 228 231 233 235 237 239 241 242 242 242 242 240 238 237 236 236 236 236 234 232 231 231 230 230 233 235 237 241 243 244 246 248 249 250
229 230 231 232 232 230 229 228 228 230 233 235 236 237 239 241 243 243 243 243 240 238 238 237 238 238 235 232 232 232 232 233 234 236 238 240 243 245 246 249 251 252
230 230 230 231 234 235 233 230 230 231 233 236 237 238 238 239 240 241 241 242 242 240 238 237 238 237 234 232 233 233 233 234 235 236 239 240 243 244 246 248 250 252
231 231 231 229 230 234 234 233 234 234 234 236 238 239 239 238 238 240 240 240 241 240 238 237 238 237 235 233 235 235 236 237 237 238 240 242 244 246 248 250 252 254
232 231 231 228 227 229 231 232 235 237 237 238 238 238 237 236 236 237 238 239 240 240 239 238 238 239 238 237 238 238 238 239 240 242 243 245 248 250 252 254 257 260
236 233 232 229 227 227 227 229 235 237 235 235 238 239 238 235 234 235 237 237 238 239 239 239 239 240 240 240 240 240 241 241 242 244 246 248 251 253 255 258 260 263
233 233 232 229 227 227 228 229 234 236 232 229 233 238 239 236 233 233 235 236 236 237 238 239 240 241 240 241 242 242 243 244 245 246 248 250 252 254 256 258 260 262
229 230 230 229 229 231 234 236 238 240 239 233 232 235 238 238 236 233 232 234 234 234 237 239 240 241 242 242 242 243 245 246 247 248 249 251 253 255 257 258 260 262
227 229 229 229 232 237 242 245 245 245 244 239 236 237 237 236 237 236 234 234 233 233 234 237 239 241 242 243 243 244 246 248 249 251 252 253 255 255 256 257 258 260
220 226 226 223 228 234 240 245 246 247 246 241 238 240 238 235 236 240 241 239 237 236 236 236 238 241 242 243 245 245 246 248 250 252 254 256 257 257 258 258 258 258
221 228 230 224 224 228 235 241 242 241 244 242 239 239 237 235 236 239 243 246 246 245 241 238 239 241 242 243 244 245 246 247 249 251 254 256 257 258 258 258 257 255